Volver al catálogo

DELTA 1 DEB

ActivoPO
NORAD 21354·DEBRIS·🇺🇸 United States

Lanzado Jun 12, 1975 desde Vandenberg Space Force Base

Loading…

Próximos Pases (próximas 24 horas)

TLE

ActualizadoSource: Space-Track

Época: Sep 14, 2026, 04:48 UTC

1 21354U 75052BY  26257.20050300  .00000954  00000-0  18000-2 0  9995
2 21354  99.5048 158.3484 0225050 106.3370  45.1208 13.31629451700618

Sigue DELTA 1 DEB en tiempo real con AllMySat

Download on the App Store